FW6569 Weather Reports


time (UTC)temp
C
wind
direction
speed
KPH
gust
KPH
rain 1hr
cm
rain 24hr
cm
rain mn
cm
humidity
%
barometer
mb
20260510043527 13 212 1.6 3.2 0.00 0.46 0.00 86 1011.5
20260510042527 13 225 1.6 3.2 0.00 0.46 0.00 87 1011.5
20260510041548 13 0.0 0.0 0.00 0.46 0.00 85 1011.5
20260510040527 13 223 0.0 3.2 0.00 0.48 0.00 86 1011.6
20260510035527 13 0.0 0.0 0.00 0.48 0.48 87 1011.6
20260510034527 13 196 0.0 1.6 0.00 0.48 0.48 87 1011.6
20260510033527 13 0.0 0.0 0.00 0.48 0.48 85 1011.5
20260510032528 13 0.0 0.0 0.00 0.51 0.48 84 1011.5
20260510031527 13 272 0.0 3.2 0.00 0.51 0.48 85 1011.5
20260510030527 14 0.0 0.0 0.00 0.53 0.48 83 1011.5
20260510025548 14 211 1.6 3.2 0.00 0.53 0.48 83 1011.4
20260510024527 14 0.0 0.0 0.00 0.56 0.48 81 1011.3
20260510023548 14 0.0 0.0 0.00 0.56 0.48 79 1011.2
20260510022527 15 0.0 0.0 0.00 0.58 0.48 78 1011.0
20260510021527 15 0.0 0.0 0.00 0.61 0.48 78 1010.9
20260510020528 15 0.0 0.0 0.00 0.61 0.48 74 1010.8
20260510015528 15 0.0 0.0 0.00 0.61 0.48 74 1010.7
20260510014527 16 0.0 0.0 0.00 0.61 0.48 71 1010.6
20260510013528 16 0.0 0.0 0.00 0.61 0.48 71 1010.4
20260510012527 17 221 0.0 3.2 0.00 0.61 0.48 69 1010.2
20260510011528 17 0.0 0.0 0.00 0.61 0.48 66 1010.0
20260510010528 17 0.0 0.0 0.00 0.61 0.48 65 1009.9
20260510005527 18 0.0 0.0 0.00 0.61 0.48 62 1009.8
20260510004528 19 227 0.0 3.2 0.00 0.61 0.48 61 1009.7
20260510003528 20 234 1.6 4.8 0.00 0.61 0.48 57 1009.5
20260510002528 20 227 3.2 9.7 0.00 0.61 0.48 55 1009.3
20260510001548 21 224 4.8 9.7 0.00 0.61 0.48 53 1009.1
20260510000528 21 249 6.4 11.3 0.00 0.61 0.48 52 1008.9
20260509235528 22 224 8.0 12.9 0.00 0.61 0.48 50 1008.9
20260509234528 22 242 9.7 16.1 0.00 0.61 0.48 48 1008.8
20260509233528 22 252 8.0 16.1 0.00 0.61 0.48 47 1008.6
20260509232528 23 238 8.0 20.9 0.00 0.61 0.48 47 1008.5
20260509231528 23 220 8.0 14.5 0.00 0.61 0.48 48 1008.4
20260509230528 23 236 8.0 16.1 0.00 0.61 0.48 47 1008.3
20260509225608 23 229 11.3 16.1 0.00 0.61 0.48 49 1008.3
20260509224528 23 243 12.9 20.9 0.00 0.61 0.48 48 1008.3
20260509223528 24 213 11.3 22.5 0.00 0.61 0.48 47 1008.3
20260509222528 24 221 11.3 22.5 0.00 0.61 0.48 46 1008.3
20260509221528 24 275 11.3 17.7 0.00 0.61 0.48 45 1008.4
20260509220528 24 228 12.9 19.3 0.00 0.61 0.48 45 1008.4
20260509215528 24 217 16.1 25.7 0.00 0.61 0.48 46 1008.5
20260509214528 24 219 14.5 24.1 0.00 0.61 0.48 45 1008.3
20260509213528 24 223 14.5 20.9 0.00 0.61 0.48 47 1008.4
20260509212529 23 241 12.9 17.7 0.00 0.61 0.48 52 1008.5
20260509211528 23 211 16.1 25.7 0.00 0.61 0.48 51 1008.5
20260509210528 23 204 17.7 27.4 0.00 0.61 0.48 52 1008.5
20260509205528 23 204 17.7 27.4 0.00 0.61 0.48 52 1008.5
20260509204529 23 208 16.1 22.5 0.00 0.61 0.48 52 1008.5
20260509203529 23 209 17.7 24.1 0.00 0.61 0.48 52 1008.7
20260509202608 23 221 12.9 20.9 0.00 0.61 0.48 55 1008.6
20260509201528 23 213 12.9 20.9 0.00 0.61 0.48 54 1008.7
20260509200529 23 210 14.5 17.7 0.00 0.61 0.48 54 1008.9
20260509195528 23 206 16.1 24.1 0.00 0.61 0.48 56 1009.1
20260509194529 22 218 17.7 27.4 0.00 0.61 0.48 56 1009.1
20260509193528 22 217 14.5 22.5 0.00 0.61 0.48 58 1009.1
20260509192528 22 208 14.5 22.5 0.00 0.61 0.48 58 1009.1
20260509191528 22 197 14.5 22.5 0.00 0.61 0.48 60 1009.2
20260509190528 22 208 17.7 22.5 0.00 0.61 0.48 60 1009.3
20260509185528 22 219 14.5 25.7 0.00 0.61 0.48 61 1009.4
20260509184529 22 198 16.1 20.9 0.00 0.61 0.48 61 1009.5
20260509183528 21 226 11.3 16.1 0.00 0.61 0.48 62 1009.4
20260509182519 21 218 12.9 22.5 0.00 0.61 0.48 61 1009.5
20260509181518 21 213 14.5 19.3 0.00 0.61 0.48 62 1009.5
20260509180518 21 235 9.7 16.1 0.00 0.61 0.48 63 1009.6
20260509175519 21 214 11.3 17.7 0.00 0.61 0.48 63 1009.7
20260509174518 20 212 14.5 22.5 0.00 0.61 0.48 65 1009.7
20260509173519 21 234 11.3 16.1 0.00 0.61 0.48 65 1009.9
20260509172519 21 236 8.0 16.1 0.00 0.61 0.48 64 1009.8
20260509171519 21 220 11.3 14.5 0.00 0.61 0.48 66 1009.8
20260509170519 20 217 11.3 19.3 0.00 0.61 0.48 67 1009.8
20260509165519 19 206 12.9 20.9 0.00 0.61 0.48 69 1009.9
20260509164519 19 211 11.3 17.7 0.00 0.61 0.48 68 1009.8
20260509163519 19 226 12.9 20.9 0.00 0.61 0.48 68 1009.8
20260509162539 19 219 11.3 22.5 0.00 0.61 0.48 70 1009.9
20260509161519 18 225 11.3 19.3 0.00 0.61 0.48 73 1009.9
20260509160519 17 209 12.9 17.7 0.00 0.61 0.48 75 1010.0
20260509155518 18 217 14.5 22.5 0.00 0.61 0.48 74 1009.9
20260509154519 18 200 14.5 22.5 0.00 0.61 0.48 73 1009.7
20260509153519 18 241 11.3 19.3 0.00 0.61 0.48 74 1009.6
20260509152519 17 225 12.9 17.7 0.00 0.61 0.48 75 1009.7
20260509151519 17 244 8.0 14.5 0.00 0.61 0.48 75 1009.7
20260509150519 17 214 11.3 16.1 0.00 0.61 0.48 78 1009.6
20260509145519 17 191 12.9 17.7 0.00 0.61 0.48 78 1009.5
20260509144519 17 206 14.5 20.9 0.00 0.61 0.48 78 1009.5
20260509143519 17 207 12.9 16.1 0.00 0.61 0.48 79 1009.5
20260509142519 17 189 11.3 14.5 0.00 0.61 0.48 79 1009.4
20260509141519 17 204 9.7 14.5 0.00 0.61 0.48 81 1009.3
20260509140519 16 175 11.3 16.1 0.00 0.61 0.48 82 1009.3
20260509135519 16 197 9.7 14.5 0.00 0.61 0.48 84 1009.4
20260509134540 16 215 9.7 14.5 0.00 0.61 0.48 86 1009.3
20260509133519 16 215 11.3 14.5 0.00 0.61 0.48 85 1009.2
20260509132519 16 205 8.0 11.3 0.00 0.61 0.48 87 1009.2
20260509131520 15 194 9.7 14.5 0.00 0.61 0.48 89 1009.3
20260509130519 15 203 9.7 14.5 0.00 0.61 0.48 89 1009.3
20260509125520 14 188 6.4 8.0 0.00 0.61 0.48 92 1009.2
20260509124519 13 194 6.4 9.7 0.00 0.61 0.48 94 1009.2
20260509123539 13 207 4.8 8.0 0.00 0.61 0.48 97 1009.1
20260509122519 13 207 3.2 8.0 0.00 0.61 0.48 97 1009.0
20260509121519 12 175 4.8 6.4 0.03 0.61 0.48 98 1008.9
20260509120520 12 201 3.2 4.8 0.03 0.61 0.48 99 1008.8
20260509115520 12 192 4.8 6.4 0.03 0.61 0.48 99 1008.9
20260509114519 12 214 3.2 6.4 0.03 0.61 0.48 99 1008.9
20260509113519 12 186 3.2 6.4 0.03 0.61 0.48 99 1008.8
20260509112520 12 185 3.2 6.4 0.03 0.61 0.48 99 1008.6
20260509111520 12 196 6.4 8.0 0.00 0.58 0.46 99 1008.6
20260509110520 12 175 1.6 3.2 0.00 0.58 0.46 99 1008.5
20260509105519 12 110 0.0 3.2 0.00 0.58 0.46 99 1008.4
20260509104520 12 62 0.0 3.2 0.00 0.58 0.46 99 1008.3
20260509103520 12 155 3.2 6.4 0.00 0.58 0.46 99 1008.3
20260509102520 12 161 1.6 3.2 0.03 0.58 0.46 99 1008.4
20260509101520 12 170 1.6 3.2 0.03 0.58 0.46 99 1008.6
20260509100540 12 187 1.6 4.8 0.08 0.58 0.46 99 1008.9
20260509095519 12 181 3.2 4.8 0.10 0.58 0.46 99 1008.8
20260509094520 12 0.0 0.0 0.10 0.58 0.46 98 1008.9
20260509093520 12 0.0 0.0 0.10 0.58 0.46 98 1009.2
20260509092520 12 203 1.6 3.2 0.10 0.56 0.43 98 1009.3
20260509091701 12 0.0 1.6 0.13 0.56 0.43 98 1009.2
20260509090520 12 203 3.2 4.8 0.13 0.51 0.38 98 1009.4
20260509085520 12 0.0 0.0 0.10 0.48 0.36 98 1009.3
20260509084520 12 89 1.6 4.8 0.13 0.48 0.36 98 1009.4
20260509083540 12 0.0 0.0 0.15 0.48 0.36 98 1009.5
20260509082600 12 152 0.0 3.2 0.15 0.46 0.33 98 1009.7
20260509081520 12 0.0 0.0 0.15 0.43 0.30 98 1009.7
20260509080520 12 0.0 0.0 0.13 0.38 0.25 98 1009.8
20260509075520 12 0.0 0.0 0.15 0.38 0.25 98 1009.8
20260509074540 12 0.0 0.0 0.13 0.36 0.23 98 1009.7
20260509073520 12 133 1.6 3.2 0.10 0.33 0.20 98 1010.0
20260509072521 12 0.0 1.6 0.08 0.30 0.18 98 1010.1
20260509071520 12 0.0 0.0 0.05 0.28 0.15 97 1010.2
20260509070520 12 0.0 0.0 0.05 0.25 0.13 97 1010.1
20260509065520 12 127 1.6 3.2 0.05 0.23 0.10 97 1010.0
20260509064520 12 0.0 0.0 0.05 0.23 0.10 97 1010.2
20260509063540 12 0.0 0.0 0.08 0.23 0.10 97 1010.3
20260509062600 12 0.0 0.0 0.08 0.23 0.10 97 1010.5
20260509061520 12 0.0 0.0 0.08 0.23 0.10 97 1010.5
20260509060520 12 0.0 0.0 0.05 0.20 0.08 97 1010.8
20260509055520 12 0.0 0.0 0.03 0.18 0.05 97 1010.9
20260509054520 12 0.0 0.0 0.03 0.18 0.05 97 1010.9
20260509053601 12 0.0 0.0 0.00 0.15 0.03 97 1010.8
20260509052520 12 25 0.0 1.6 0.00 0.15 0.03 97 1010.7
20260509051520 12 343 1.6 4.8 0.00 0.15 0.03 97 1010.6
20260509050540 12 3 0.0 3.2 0.03 0.15 0.03 96 1010.5
20260509045520 12 3 0.0 3.2 0.03 0.15 0.03 96 1010.4
20260509044520 12 357 1.6 4.8 0.03 0.15 0.03 96 1010.3